Location: Guferjoch
(46.7462°N, 8.4506°E)
Time: 00:21:12
(UTC+00:00)

IDEFIX/ARIANE 42P - Pass Details

Date: 14 July 2020
Orbit: 784 x 804 km, 98.4° (Epoch: 03 August)

Event Time Altitude Azimuth Distance (km) Brightness Sun altitude
Rises 01:53:08 0° 22° (NNE) 3,292 7.5 -14.6°
Reaches altitude 10° 01:55:45 10° 33° (NNE) 2,356 6.5 -14.3°
Maximum altitude 02:00:18 30° 95° (E) 1,378 4.1 -13.9°
Drops below altitude 10° 02:04:48 10° 156° (SSE) 2,337 4.7 -13.4°
Enters shadow 02:06:34 - 164° (SSE) 2,961 5.2 -13.3°
